TimeMDT,TemperatureF,Dew PointF,Humidity,Sea Level PressureIn,VisibilityMPH,Wind Direction,Wind SpeedMPH,Gust SpeedMPH,PrecipitationIn,Events,Conditions,WindDirDegrees,DateUTC
12:53 AM,51.1,34.0,52,30.02,10.0,SW,15.0,25.3,N/A,,Clear,220,2013-06-14 06:53:00
1:53 AM,48.0,33.1,56,30.04,10.0,South,13.8,-,N/A,,Clear,190,2013-06-14 07:53:00
2:53 AM,48.0,33.1,56,30.04,10.0,South,15.0,24.2,N/A,,Clear,190,2013-06-14 08:53:00
3:53 AM,48.0,33.1,56,30.06,10.0,SSW,15.0,-,N/A,,Partly Cloudy,210,2013-06-14 09:53:00
4:53 AM,46.9,33.1,59,30.11,10.0,SW,12.7,-,N/A,,Clear,220,2013-06-14 10:53:00
5:53 AM,46.0,33.1,61,30.15,10.0,SW,18.4,-,N/A,,Partly Cloudy,220,2013-06-14 11:53:00
6:53 AM,46.0,33.1,61,30.16,10.0,SW,20.7,26.5,N/A,,Partly Cloudy,220,2013-06-14 12:53:00
7:53 AM,48.9,34.0,56,30.17,10.0,SW,13.8,-,N/A,,Partly Cloudy,220,2013-06-14 13:53:00
8:53 AM,50.0,34.0,54,30.17,10.0,WSW,21.9,27.6,N/A,,Partly Cloudy,240,2013-06-14 14:53:00
9:53 AM,52.0,33.1,49,30.19,10.0,SW,20.7,27.6,N/A,,Partly Cloudy,220,2013-06-14 15:53:00
10:53 AM,55.0,33.1,43,30.17,10.0,SW,20.7,27.6,N/A,,Scattered Clouds,220,2013-06-14 16:53:00
11:53 AM,57.0,32.0,39,30.17,10.0,WSW,16.1,26.5,N/A,,Scattered Clouds,250,2013-06-14 17:53:00
12:53 PM,57.9,33.1,39,30.17,10.0,West,13.8,25.3,N/A,,Partly Cloudy,270,2013-06-14 18:53:00
1:53 PM,62.1,33.1,34,30.15,10.0,WSW,16.1,26.5,N/A,,Partly Cloudy,250,2013-06-14 19:53:00
2:53 PM,63.0,32.0,31,30.13,10.0,West,13.8,21.9,N/A,,Partly Cloudy,260,2013-06-14 20:53:00
3:53 PM,64.9,30.0,27,30.11,10.0,West,11.5,21.9,N/A,,Partly Cloudy,270,2013-06-14 21:53:00
4:53 PM,66.0,27.0,23,30.09,10.0,West,13.8,-,N/A,,Partly Cloudy,260,2013-06-14 22:53:00
5:53 PM,64.9,26.1,23,30.09,10.0,West,9.2,-,N/A,,Partly Cloudy,270,2013-06-14 23:53:00
6:53 PM,64.9,23.0,20,30.07,10.0,WSW,11.5,-,N/A,,Partly Cloudy,250,2013-06-15 00:53:00
7:53 PM,64.0,24.1,22,30.06,10.0,West,6.9,-,N/A,,Partly Cloudy,260,2013-06-15 01:53:00
8:53 PM,57.9,28.0,32,30.08,10.0,WSW,5.8,-,N/A,,Partly Cloudy,240,2013-06-15 02:53:00
9:53 PM,50.0,32.0,50,30.11,10.0,South,5.8,-,N/A,,Clear,190,2013-06-15 03:53:00
10:53 PM,46.9,27.0,46,30.12,10.0,South,8.1,-,N/A,,Clear,170,2013-06-15 04:53:00
11:53 PM,46.0,28.9,51,30.10,10.0,Calm,Calm,-,N/A,,Clear,0,2013-06-15 05:53:00